Change the Weather History Date:

Thursday, January 24, 2013

  Actual Average Record
Temperature  
Mean Temperature 18 °F 29 °F  
Max Temperature 23 °F 36 °F 67 °F (1950)
Min Temperature 12 °F 22 °F -3 °F (2014)
Degree Days  
Heating Degree Days 47 36  
Month to date heating degree days 792 864  
Since 1 July heating degree days 2818 2989  
Cooling Degree Days 0    
Month to date cooling degree days 0  
Year to date cooling degree days 0  
Moisture  
Dew Point 8 °F    
Average Humidity 64    
Maximum Humidity 88    
Minimum Humidity 39    
Precipitation  
Precipitation T in 0.06 in 0.80 in (1992)
Month to date precipitation 0.58 2.22  
Sea Level Pressure  
Sea Level Pressure 30.35 in    
Wind  
Wind Speed 7 mph (NW)    
Max Wind Speed 18 mph    
Max Gust Speed 23 mph    
Visibility 6 miles    
Events Snow    
T = Trace of Precipitation, MM = Missing Value Source: NWS Daily Summary

Daily Weather History Graph

Daily Weather History Graph

Search for Another Location

Airport or City:

Trip Planner

Search our weather history database for the weather conditions in past years. The results will help you decide how hot, cold, wet, or windy it might be!

Date:

Astronomy

Jan. 24, 2013 Rise Set
Actual Time 7:37 AM EST 5:32 PM EST
Civil Twilight 7:08 AM EST 6:01 PM EST
Nautical Twilight 6:35 AM EST 6:34 PM EST
Astronomical Twilight 6:03 AM EST 7:06 PM EST
Moon 3:32 PM EST (1/24) 5:34 AM EST (1/24)
Length of Visible Light 10h 52m
Length of Day
9h 54m
Waxing Gibbous, 94% of the Moon is Illuminated
Jan 24
Waxing Gibbous
Jan 26
Full
Feb 3
Last Quarter
Feb 10
New
Feb 17
First Quarter

Hourly Weather History & Observations

Time (EST) Temp. Windchill Dew Point Humidity Pressure Visibility Wind Dir Wind Speed Gust Speed Precip Events Conditions
12:08 AM 15.8 °F - 10.4 °F 79% 30.02 in 2.0 mi Calm Calm - 0.00 in Snow Light Snow
12:21 AM 15.8 °F - 10.4 °F 79% 30.02 in 1.8 mi Calm Calm - 0.00 in Snow Light Snow
12:53 AM 15.1 °F - 10.9 °F 84% 30.09 in 1.8 mi Calm Calm - 0.00 in Snow Light Snow
1:53 AM 15.1 °F 9.4 °F 12.0 °F 88% 30.10 in 2.0 mi NW 3.5 mph - 0.00 in Snow Light Snow
2:30 AM 15.8 °F - 12.2 °F 86% 30.04 in 3.0 mi Calm Calm - 0.00 in Snow Light Snow
2:53 AM 14.0 °F - 12.0 °F 92% 30.12 in 5.0 mi Calm Calm - 0.00 in   Overcast
3:48 AM 15.8 °F 8.6 °F 10.4 °F 79% 30.08 in 4.0 mi West 4.6 mph - 0.00 in Snow Light Snow
3:53 AM 14.0 °F 6.5 °F 10.9 °F 88% 30.15 in 2.0 mi WNW 4.6 mph - 0.00 in Snow Light Snow
4:09 AM 14.0 °F 5.1 °F 10.4 °F 86% 30.09 in 3.0 mi WNW 5.8 mph - 0.00 in Snow Light Snow
4:17 AM 14.0 °F 5.1 °F 10.4 °F 86% 30.09 in 2.0 mi WNW 5.8 mph - 0.00 in Snow Light Snow
4:30 AM 14.0 °F 5.1 °F 10.4 °F 86% 30.10 in 4.0 mi WNW 5.8 mph - 0.00 in Snow Light Snow
4:53 AM 14.0 °F 5.1 °F 10.0 °F 84% 30.19 in 10.0 mi WNW 5.8 mph - 0.00 in   Overcast
5:53 AM 12.9 °F 1.6 °F 9.0 °F 84% 30.24 in 10.0 mi WNW 8.1 mph - N/A   Overcast
7:53 AM 12.0 °F 2.7 °F 8.1 °F 84% 30.35 in 5.0 mi WNW 5.8 mph - N/A   Overcast
8:20 AM 12.2 °F 1.7 °F 8.6 °F 85% 30.30 in 5.0 mi WNW 6.9 mph - N/A   Haze
8:36 AM 12.2 °F 0.7 °F 8.6 °F 85% 30.31 in 1.8 mi WNW 8.1 mph - 0.00 in Snow Light Snow
8:46 AM 12.2 °F 4.3 °F 8.6 °F 85% 30.31 in 2.0 mi WNW 4.6 mph - 0.00 in Snow Light Snow
8:51 AM 12.2 °F 4.3 °F 8.6 °F 85% 30.32 in 7.0 mi WNW 4.6 mph - 0.00 in   Scattered Clouds
8:53 AM 12.9 °F 3.8 °F 9.0 °F 84% 30.40 in 8.0 mi West 5.8 mph - 0.00 in   Scattered Clouds
9:53 AM 16.0 °F 5.3 °F 9.0 °F 74% 30.44 in 10.0 mi WNW 8.1 mph - N/A   Scattered Clouds
10:13 AM 15.8 °F 5.1 °F 8.6 °F 73% 30.37 in 10.0 mi NW 8.1 mph - N/A   Mostly Cloudy
10:49 AM 17.6 °F 4.3 °F 8.6 °F 68% 30.40 in 10.0 mi WNW 12.7 mph - N/A   Mostly Cloudy
10:53 AM 18.0 °F 3.6 °F 8.1 °F 65% 30.48 in 10.0 mi NW 15.0 mph 21.9 mph N/A   Mostly Cloudy
11:09 AM 17.6 °F 5.7 °F 6.8 °F 63% 30.42 in 10.0 mi NNW 10.4 mph - N/A   Overcast
11:39 AM 17.6 °F 4.3 °F 6.8 °F 63% 30.44 in 10.0 mi NW 12.7 mph 17.3 mph N/A   Mostly Cloudy
11:53 AM 18.0 °F 6.1 °F 8.1 °F 65% 30.51 in 10.0 mi WNW 10.4 mph - N/A   Overcast
12:53 PM 19.9 °F 5.7 °F 8.1 °F 60% 30.50 in 10.0 mi WNW 16.1 mph 23.0 mph N/A   Mostly Cloudy
1:53 PM 21.9 °F 9.8 °F 6.1 °F 51% 30.49 in 10.0 mi WNW 12.7 mph 18.4 mph N/A   Mostly Cloudy
2:11 PM 19.4 °F 5.5 °F 10.4 °F 68% 30.43 in 1.8 mi NNW 15.0 mph - 0.00 in Snow Light Snow
2:14 PM 17.6 °F 4.3 °F 12.2 °F 79% 30.43 in 0.8 mi NNW 12.7 mph - 0.00 in Snow Light Snow
2:22 PM 17.6 °F 6.4 °F 12.2 °F 79% 30.43 in 0.5 mi NNW 9.2 mph - 0.00 in Snow Snow
2:28 PM 17.6 °F 9.3 °F 10.4 °F 73% 30.43 in 1.0 mi NNW 5.8 mph - 0.00 in Snow Light Snow
2:31 PM 19.4 °F 11.5 °F 12.2 °F 74% 30.43 in 4.0 mi NNW 5.8 mph - 0.00 in Snow Light Snow
2:44 PM 21.2 °F 12.6 °F 10.4 °F 63% 30.43 in 10.0 mi North 6.9 mph - 0.00 in   Scattered Clouds
2:53 PM 21.0 °F 11.4 °F 10.0 °F 63% 30.51 in 10.0 mi WNW 8.1 mph - 0.00 in   Partly Cloudy
3:53 PM 19.9 °F - 3.9 °F 50% 30.52 in 10.0 mi Calm Calm - 0.00 in   Mostly Cloudy
4:53 PM 19.0 °F 8.2 °F -2.0 °F 40% 30.53 in 10.0 mi NNW 9.2 mph - N/A   Partly Cloudy
5:53 PM 18.0 °F 8.7 °F -2.9 °F 40% 30.56 in 10.0 mi NNW 6.9 mph - N/A   Clear
6:53 PM 16.0 °F 7.4 °F -0.9 °F 47% 30.57 in 10.0 mi NNW 5.8 mph - N/A   Clear
7:53 PM 15.1 °F 7.7 °F -2.0 °F 47% 30.58 in 10.0 mi North 4.6 mph - N/A   Clear
8:53 PM 15.1 °F 5.2 °F -0.9 °F 49% 30.57 in 10.0 mi NNE 6.9 mph - N/A   Clear
9:53 PM 12.9 °F 5.2 °F -0.9 °F 54% 30.56 in 10.0 mi ENE 4.6 mph - N/A   Clear
10:53 PM 12.0 °F 2.7 °F -0.0 °F 59% 30.56 in 10.0 mi ENE 5.8 mph - N/A   Clear
11:53 PM 12.0 °F 2.7 °F -0.0 °F 59% 30.55 in 10.0 mi East 5.8 mph - N/A   Clear